Location: Bremen
(53.0793°N, 8.8017°E)
Time: 17:30:08
(UTC+02:00)

Transit 2A Rocket - Pass Details

Date: 21 June 2024
Orbit: 582 x 910 km, 66.7° (Epoch: 20 July)

Event Time Altitude Azimuth Distance (km) Brightness Sun altitude
Rises 00:33:34 0° 262° (W) 3,224 8.3 -12.6°
Reaches altitude 10° 00:36:10 10° 273° (W) 2,356 7.7 -12.7°
Maximum altitude 00:40:57 30° 335° (NNW) 1,453 7.3 -12.8°
Drops below altitude 10° 00:46:06 10° 36° (NE) 2,534 8.3 -13.0°
Sets 00:49:00 0° 46° (NE) 3,509 8.9 -13.0°
